timestamp,surface_pressure_avg,surface_temp_avg,battery_voltage,lat,long
2022-08-17 00:09:00+00:00,240.2348,19.85,11.7,47.84626,-54.09684
2022-08-17 00:19:01+00:00,240.8715,19.99,11.61,47.84626,-54.09684
2022-08-17 00:29:01+00:00,245.2348,20.09,11.61,47.84626,-54.09684
2022-08-17 00:39:01+00:00,254.4698,19.96,11.61,47.84626,-54.09684
2022-08-17 00:49:01+00:00,261.1914,19.94,11.61,47.84626,-54.09684
2022-08-17 00:59:01+00:00,266.2014,20.02,11.61,47.84626,-54.09684
2022-08-17 01:09:01+00:00,274.1447,20.1,11.61,47.84626,-54.09684
2022-08-17 01:19:01+00:00,284.5964,20.1,11.61,47.84626,-54.09684
2022-08-17 01:29:01+00:00,294.3597,20.1,11.61,47.84626,-54.09684
2022-08-17 01:39:01+00:00,300.8931,19.79,11.61,47.84626,-54.09684
2022-08-17 01:49:01+00:00,308.613,19.3,11.61,47.84626,-54.09684
2022-08-17 01:59:01+00:00,316.6263,19.22,11.61,47.84626,-54.09684
2022-08-17 02:09:01+00:00,321.5846,19.4,11.61,47.84626,-54.09684
2022-08-17 02:19:00+00:00,324.7296,19.2,11.61,47.84626,-54.09684
2022-08-17 02:29:00+00:00,329.7447,19.1,11.61,47.84626,-54.09684
2022-08-17 02:39:00+00:00,335.0963,19.17,11.61,47.84626,-54.09684
2022-08-17 02:49:00+00:00,335.8863,19.2,11.61,47.84626,-54.09684
2022-08-17 02:59:00+00:00,336.5363,19.15,11.61,47.84626,-54.09684
2022-08-17 03:09:00+00:00,335.7213,19.2,11.61,47.84626,-54.09684
2022-08-17 03:19:00+00:00,336.7797,19.2,11.61,47.84626,-54.09684
2022-08-17 03:29:00+00:00,336.0496,19.22,11.61,47.84626,-54.09684
2022-08-17 03:39:00+00:00,335.0463,19.2,11.61,47.84626,-54.09684
2022-08-17 03:49:00+00:00,333.2245,19.29,11.61,47.84626,-54.09684
2022-08-17 03:59:00+00:00,332.61300000000006,19.3,11.61,47.84626,-54.09684
2022-08-17 04:09:00+00:00,328.8463,19.4,11.61,47.84626,-54.09684
2022-08-17 04:19:00+00:00,323.0997,19.4,11.53,47.84626,-54.09684
2022-08-17 04:29:00+00:00,321.533,19.5,11.53,47.84626,-54.09684
2022-08-17 04:39:00+00:00,317.7847,19.5,11.53,47.84626,-54.09684
2022-08-17 04:49:00+00:00,315.77299999999997,19.55,11.53,47.84626,-54.09684
2022-08-17 04:59:00+00:00,313.6263,19.6,11.53,47.84626,-54.09684
2022-08-17 05:09:00+00:00,310.8879,19.6,11.53,47.84626,-54.09684
2022-08-17 05:19:00+00:00,305.4046,19.7,11.53,47.84626,-54.09684
2022-08-17 05:29:00+00:00,300.0697,19.7,11.53,47.84626,-54.09684
2022-08-17 05:39:00+00:00,294.2714,19.6,11.53,47.84626,-54.09684
2022-08-17 05:49:00+00:00,287.0497,19.61,11.53,47.84626,-54.09684
2022-08-17 05:59:00+00:00,278.4247,19.6,11.53,47.84626,-54.09684
2022-08-17 06:09:00+00:00,270.5331,19.61,11.53,47.84626,-54.09684
2022-08-17 06:19:01+00:00,260.4781,19.67,11.53,47.84626,-54.09684
2022-08-17 06:29:01+00:00,249.8047,19.7,11.53,47.84626,-54.09684
2022-08-17 06:39:01+00:00,239.5764,19.72,11.53,47.84626,-54.09684
2022-08-17 06:49:01+00:00,231.7747,19.78,11.53,47.84626,-54.09684
2022-08-17 06:59:01+00:00,223.5497,19.7,11.53,47.84626,-54.09684
2022-08-17 07:09:01+00:00,213.7548,19.79,11.53,47.84626,-54.09684
2022-08-17 07:19:01+00:00,204.8997,19.8,11.53,47.84626,-54.09684
2022-08-17 07:29:01+00:00,198.9814,19.8,11.53,47.84626,-54.09684
2022-08-17 07:39:01+00:00,192.2265,19.8,11.53,47.84626,-54.09684
2022-08-17 07:49:01+00:00,185.3848,19.78,11.53,47.84626,-54.09684
2022-08-17 07:59:01+00:00,181.3565,19.75,11.53,47.84626,-54.09684
2022-08-17 08:09:01+00:00,179.3165,19.7,11.53,47.84626,-54.09684
2022-08-17 08:19:01+00:00,176.2298,19.7,11.53,47.84626,-54.09684
2022-08-17 08:29:01+00:00,171.0531,19.7,11.53,47.84626,-54.09684
2022-08-17 08:39:01+00:00,169.2882,19.7,11.53,47.84626,-54.09684
2022-08-17 08:49:01+00:00,170.9847,19.69,11.53,47.84626,-54.09684
2022-08-17 08:59:01+00:00,172.4648,19.68,11.53,47.84626,-54.09684
2022-08-17 09:09:01+00:00,174.2214,19.64,11.53,47.84626,-54.09684
2022-08-17 09:19:00+00:00,176.8914,19.6,11.53,47.84626,-54.09684
2022-08-17 09:29:00+00:00,184.0798,19.6,11.53,47.84626,-54.09684
2022-08-17 09:39:00+00:00,190.4114,19.6,11.53,47.84626,-54.09684
2022-08-17 09:49:00+00:00,188.9465,19.6,11.53,47.84626,-54.09684
2022-08-17 09:59:00+00:00,190.7881,19.6,11.53,47.84626,-54.09684
2022-08-17 10:09:00+00:00,199.6498,19.59,11.53,47.84626,-54.09684
2022-08-17 10:19:00+00:00,202.2731,19.5,11.53,47.84626,-54.09684
2022-08-17 10:29:00+00:00,203.6364,19.5,11.53,47.84626,-54.09684
2022-08-17 10:39:00+00:00,209.6448,19.5,11.53,47.84626,-54.09684
2022-08-17 10:49:00+00:00,216.1048,19.54,11.53,47.84626,-54.09684
2022-08-17 10:59:00+00:00,220.083,19.56,11.53,47.84626,-54.09684
2022-08-17 11:09:00+00:00,223.1314,19.5,11.53,47.84626,-54.09684
2022-08-17 11:19:00+00:00,228.3998,19.5,11.53,47.84626,-54.09684
2022-08-17 11:29:00+00:00,232.5598,19.5,11.53,47.84626,-54.09684
2022-08-17 11:39:00+00:00,237.1498,19.5,11.53,47.84626,-54.09684
2022-08-17 11:49:00+00:00,238.9715,19.5,11.53,47.84626,-54.09684
2022-08-17 11:59:00+00:00,240.1964,19.4,11.53,47.84626,-54.09684
2022-08-17 12:09:00+00:00,241.213,19.4,11.53,47.84626,-54.09684
2022-08-17 12:19:00+00:00,241.9664,19.39,11.53,47.84626,-54.09684
2022-08-17 12:29:00+00:00,242.4165,19.38,11.53,47.84626,-54.09684
2022-08-17 12:39:00+00:00,246.3264,19.39,11.53,47.84626,-54.09684
2022-08-17 12:49:00+00:00,253.9881,19.46,11.53,47.84626,-54.09684
2022-08-17 12:59:00+00:00,259.6131,19.5,11.53,47.84626,-54.09684
2022-08-17 13:09:00+00:00,264.0281,19.5,11.53,47.84626,-54.09684
2022-08-17 13:19:00+00:00,270.6464,19.5,11.61,47.84626,-54.09684
2022-08-17 13:29:00+00:00,280.6431,19.38,11.61,47.84626,-54.09684
2022-08-17 13:39:00+00:00,287.5214,19.4,11.61,47.84626,-54.09684
2022-08-17 13:49:00+00:00,290.9714,19.47,11.61,47.84626,-54.09684
2022-08-17 13:59:00+00:00,296.6497,19.5,11.61,47.84626,-54.09684
2022-08-17 14:09:00+00:00,305.0597,19.5,11.61,47.84626,-54.09684
2022-08-17 14:19:00+00:00,309.0314,19.5,11.7,47.84626,-54.09684
2022-08-17 14:29:00+00:00,311.5496,19.37,11.7,47.84626,-54.09684
2022-08-17 14:39:00+00:00,316.45799999999997,19.39,11.7,47.84626,-54.09684
2022-08-17 14:49:00+00:00,322.6213,19.4,11.7,47.84626,-54.09684
2022-08-17 14:59:00+00:00,324.633,19.34,11.7,47.84626,-54.09684
2022-08-17 15:09:00+00:00,329.1363,19.38,11.7,47.84626,-54.09684
2022-08-17 15:19:00+00:00,331.1712,19.4,11.77,47.84626,-54.09684
2022-08-17 15:29:00+00:00,332.93300000000005,19.4,11.77,47.84626,-54.09684
2022-08-17 15:39:00+00:00,334.5363,19.4,11.77,47.84626,-54.09684
2022-08-17 15:49:00+00:00,335.8712,19.4,11.77,47.84626,-54.09684
2022-08-17 15:59:00+00:00,332.0613,19.4,11.77,47.84626,-54.09684
2022-08-17 16:09:00+00:00,328.8262,19.4,11.77,47.84626,-54.09684
2022-08-17 16:19:01+00:00,327.1379,19.41,11.77,47.84626,-54.09684
2022-08-17 16:29:01+00:00,326.1697,19.43,11.77,47.84626,-54.09684
2022-08-17 16:39:01+00:00,322.3196,19.42,11.77,47.84626,-54.09684
2022-08-17 16:49:01+00:00,321.5862,19.4,11.77,47.84626,-54.09684
2022-08-17 16:59:01+00:00,320.9597,19.4,11.77,47.84626,-54.09684
2022-08-17 17:09:01+00:00,318.4446,19.4,11.77,47.84626,-54.09684
2022-08-17 17:19:00+00:00,316.7947,19.4,11.77,47.84626,-54.09684
2022-08-17 17:29:00+00:00,315.9847,19.4,11.77,47.84626,-54.09684
2022-08-17 17:39:00+00:00,311.7631,19.4,11.77,47.84626,-54.09684
2022-08-17 17:49:00+00:00,305.1497,19.44,11.77,47.84626,-54.09684
2022-08-17 17:59:00+00:00,303.2314,19.49,11.77,47.84626,-54.09684
2022-08-17 18:09:00+00:00,297.843,19.51,11.77,47.84626,-54.09684
2022-08-17 18:19:00+00:00,287.2897,19.6,11.77,47.84626,-54.09684
2022-08-17 18:29:00+00:00,281.9247,19.58,11.77,47.84626,-54.09684
2022-08-17 18:39:00+00:00,277.763,19.5,11.77,47.84626,-54.09684
2022-08-17 18:49:00+00:00,267.9247,19.6,11.77,47.84626,-54.09684
2022-08-17 18:59:00+00:00,257.3014,19.6,11.77,47.84626,-54.09684
2022-08-17 19:09:00+00:00,255.6581,19.5,11.77,47.84626,-54.09684
2022-08-17 19:19:01+00:00,249.1397,19.5,11.77,47.84626,-54.09684
2022-08-17 19:29:01+00:00,234.9314,19.5,11.77,47.84626,-54.09684
2022-08-17 19:39:01+00:00,224.3981,19.56,11.77,47.84626,-54.09684
2022-08-17 19:49:01+00:00,221.3631,19.6,11.77,47.84626,-54.09684
2022-08-17 19:59:01+00:00,214.5531,19.6,11.77,47.84626,-54.09684
2022-08-17 20:09:01+00:00,202.9064,19.59,11.77,47.84626,-54.09684
2022-08-17 20:19:00+00:00,197.8114,19.56,11.7,47.84626,-54.09684
2022-08-17 20:29:00+00:00,196.9198,19.5,11.7,47.84626,-54.09684
2022-08-17 20:39:00+00:00,190.6148,19.56,11.7,47.84626,-54.09684
2022-08-17 20:49:00+00:00,184.6031,19.6,11.7,47.84626,-54.09684
2022-08-17 20:59:00+00:00,186.1765,19.6,11.7,47.84626,-54.09684
2022-08-17 21:09:00+00:00,184.6615,19.6,11.7,47.84626,-54.09684
2022-08-17 21:19:00+00:00,181.5165,19.59,11.7,47.84626,-54.09684
2022-08-17 21:29:00+00:00,182.9598,19.56,11.7,47.84626,-54.09684
2022-08-17 21:39:00+00:00,185.3299,19.55,11.7,47.84626,-54.09684
2022-08-17 21:49:00+00:00,186.9781,19.59,11.7,47.84626,-54.09684
2022-08-17 21:59:00+00:00,191.2532,19.85,11.7,47.84626,-54.09684
2022-08-17 22:09:00+00:00,194.1698,20.04,11.7,47.84626,-54.09684
2022-08-17 22:19:01+00:00,196.5265,20.1,11.7,47.84626,-54.09684
2022-08-17 22:29:01+00:00,201.7265,20.0,11.7,47.84626,-54.09684
2022-08-17 22:39:01+00:00,203.4348,19.7,11.7,47.84626,-54.09684
2022-08-17 22:49:01+00:00,202.8047,19.73,11.7,47.84626,-54.09684
2022-08-17 22:59:01+00:00,207.1048,19.89,11.7,47.84626,-54.09684
2022-08-17 23:09:01+00:00,211.8798,19.83,11.7,47.84626,-54.09684
2022-08-17 23:19:00+00:00,212.0598,19.67,11.7,47.84626,-54.09684
2022-08-17 23:29:00+00:00,212.6348,19.8,11.7,47.84626,-54.09684
2022-08-17 23:39:00+00:00,214.8665,19.88,11.7,47.84626,-54.09684
2022-08-17 23:49:00+00:00,217.2964,19.89,11.7,47.84626,-54.09684
2022-08-17 23:59:00+00:00,218.9381,19.89,11.7,47.84626,-54.09684
